#timestamp,LO_Frequency,Hit,StdDev 
1628467215.7,286047000.6,N
1628467235.6,286047002.2,N
1628467255.4,286046999.7,N
1628467275.2,286047000.9,N
1628467295.1,286047002.6,N
1628467296.0,286047002.6,N
1628467315.8,286046999.7,N
1628467335.7,286046999.8,N
1628467355.5,286046999.9,N
1628467375.3,286047000.1,N
1628467395.2,286047000.0,N
1628467415.0,286047000.4,N
1628467415.9,286047000.4,N
1628467435.8,286046998.1,N
1628467455.6,286047000.3,N
1628467475.4,286047000.4,N
1628467495.3,286046999.9,N
1628467515.1,286047002.3,N
1628467535.8,286047000.1,N
1628467555.7,286046999.8,N
1628467575.5,286047000.4,N
1628467595.4,286046998.6,N
1628467615.2,286046998.5,N
1628467635.0,286046998.5,N
1628467635.9,286046998.5,N
1628467655.8,286047000.4,N
1628467675.6,286046999.8,N
1628467695.4,286047002.7,N
1628467715.3,286047000.0,N
1628467735.1,286047000.2,N
1628467755.9,286046999.9,N
1628467775.7,286047002.4,N
1628467795.5,286046999.9,N
1628467815.4,286047002.6,N
1628467835.2,286047000.3,N
1628467855.1,286047000.3,N
1628467856.0,286047000.3,N
1628467875.8,286046999.9,N
1628467895.6,286047000.8,N
1628467915.5,286046999.7,N
1628467935.3,286046999.9,N
1628467955.2,286047002.4,N
1628467975.9,286046999.8,N
1628467995.7,286047000.1,N
1628468015.6,286046999.7,N
1628468035.4,286047000.6,N
1628468055.2,286047000.2,N
1628468075.1,286046999.9,N
1628468076.0,286046999.9,N
1628468095.8,286047000.3,N
1628468115.7,286047000.7,N
1628468135.5,286047000.6,N
1628468155.3,286046999.7,N
1628468175.2,286047001.6,N
1628468195.0,286047002.3,N
1628468195.9,286047002.3,N
1628468215.8,286047002.8,N
1628468235.6,286047002.2,N
1628468255.4,286047004.1,Y
1628468275.3,286047003.9,P
1628468295.1,286047005.5,P
1628468315.9,286047004.5,N
1628468335.7,286047009.2,Y
1628468355.5,286047004.8,P
1628468375.4,286047006.9,P
1628468395.2,286047008.8,P
1628468415.0,286047009.0,Y
1628468435.0,286047001.9,P
1628468435.9,286047001.9,N
1628468455.8,286047002.2,N
1628468475.6,286047002.3,N
1628468495.6,286047001.9,N
1628468515.5,286047001.9,N
1628468535.3,286047001.9,N
1628468555.1,286047001.8,N
1628468575.6,286047001.3,N
1628468595.4,286047002.6,N
1628468615.2,286047002.2,N
1628468635.1,286047001.9,N
1628468636.0,286047001.9,N
1628468655.8,286047001.8,N
1628468675.7,286047001.7,N
1628468695.5,286047002.3,N
1628468715.3,286047000.4,N
1628468735.2,286047000.5,N
1628468755.0,286046999.8,N
1628468755.9,286046999.8,N
1628468775.8,286047000.2,N
1628468795.6,286046999.7,N
1628468815.5,286047000.0,N
1628468835.3,286046999.9,N
1628468855.1,286047000.7,N
1628468875.9,286047000.7,N
1628468895.7,286047000.5,N
1628468915.2,286047000.3,N
1628468935.1,286046999.3,N
1628468936.0,286046999.3,N
1628468955.8,286046997.7,N
1628468975.6,286046994.9,Y
1628468995.5,286046994.0,P
1628469015.4,286046994.6,N
1628469035.2,286046996.4,N
1628469055.0,286046993.7,N
1628469055.9,286046993.7,N
1628469075.8,286046991.7,Y
1628469095.6,286046997.4,P
1628469115.4,286046995.2,P
1628469135.3,286046995.1,P
1628469155.1,286046994.1,Y
1628469175.9,286046996.9,P
1628469195.7,286046999.3,N
1628469215.5,286046999.1,N
1628469235.4,286046999.1,N
1628469255.2,286046997.1,N
1628469275.0,286046998.6,N
1628469275.9,286046998.6,N
1628469295.8,286046998.8,N
1628469315.6,286046998.8,N
1628469335.5,286046998.4,N
1628469355.3,286046996.7,Y
1628469375.1,286046998.1,P
1628469395.9,286046998.9,P
1628469415.7,286046998.8,P
1628469435.2,286046999.4,N
1628469455.0,286046999.4,N
1628469455.9,286046999.4,N
1628469475.8,286046997.2,Y
1628469495.6,286047001.0,P
1628469515.4,286047002.6,N
1628469535.3,286047000.1,N
1628469555.2,286047002.8,N
1628469575.9,286047002.6,N
1628469595.7,286047000.2,N
1628469615.6,286047000.8,N
1628469635.4,286046999.3,N
1628469655.2,286046999.4,N
1628469675.1,286046998.8,N
1628469695.8,286046999.3,N
1628469715.7,286046999.6,N
1628469735.5,286046998.4,N
1628469755.4,286046998.6,N
1628469775.2,286046999.4,N
1628469795.0,286046998.1,N
1628469795.9,286046998.1,N
1628469815.8,286047000.7,N
1628469835.6,286046998.2,N
1628469855.4,286046998.1,N
1628469875.3,286047001.1,N
1628469895.1,286047002.8,N
1628469915.9,286047002.7,N
1628469935.7,286047002.4,N
1628469955.5,286047001.6,N
1628469975.4,286047001.9,N
1628469995.2,286047003.8,N
1628470015.0,286047004.3,N
1628470015.9,286047004.3,N
1628470035.8,286047003.8,N
1628470055.6,286047001.3,N
1628470075.5,286047003.1,N
1628470095.3,286047002.3,N
1628470115.1,286047002.3,N
1628470135.9,286047002.7,N
1628470155.2,286047002.2,N
1628470175.0,286047001.3,N
1628470175.9,286047001.3,N
1628470195.8,286047004.1,N
1628470215.6,286047003.7,N
1628470235.4,286047003.6,N
1628470255.5,286047005.9,N
1628470275.3,286047003.8,N
1628470295.2,286047003.7,N
1628470315.0,286047001.8,N
1628470315.9,286047001.8,N
1628470335.8,286047001.6,N
1628470355.6,286047004.2,N
1628470375.4,286047001.6,N
1628470395.3,286047004.3,N
1628470415.1,286047003.9,Y
1628470435.8,286046999.7,P
1628470455.7,286047000.2,N
1628470475.5,286047001.1,N
1628470495.4,286046999.5,N
1628470515.2,286046999.0,N
1628470535.0,286046998.6,N
1628470535.9,286046998.6,N
1628470555.8,286046999.4,N
1628470575.6,286046999.6,N
1628470595.4,286046996.6,N
1628470615.3,286046998.3,N
1628470635.1,286046998.6,N
1628470655.9,286046998.2,N
1628470675.8,286047000.6,N
1628470695.7,286047000.3,N
1628470715.5,286047002.1,N
1628470735.3,286047001.3,N
1628470755.2,286047002.5,N
1628470775.0,286047002.8,N
1628470775.9,286047002.8,N
1628470795.7,286047001.7,N
